OEDM

Details ICAO OEDM
Name PRINCE SALMAN BIN ABDULAZIZ
Region Saudi Arabia
Timezone Asia/Riyadh (UTC+3.0)
Plans Departing 4
Arriving 4
Stats Elevation 3,026 ft / 922 m (AMSL)
Location 24.449858° 44.121184°
Runways 1
Magnetic Variation 3.310° E
Sunrise 2018-05-24 02:18:10 UTC / 2018-05-24 05:18:10 Local
Sunset 2018-05-24 15:45:23 UTC / 2018-05-24 18:45:23 Local
Advertisement - Login to hide

Runways

ID Width Length Bearing (true) Bearing (mag) Surface Threshold Offset Overrun Length
15 147 ft / 45 m 10,045 ft / 3,062 m 153.91° 150.60° Asphalt 0 ft / 0 m 400 ft / 122 m
33 147 ft / 45 m 10,045 ft / 3,062 m 333.92° 330.61° Asphalt 0 ft / 0 m 400 ft / 122 m

Map

Weather


0- 5 10 15 20 25 30 35+ Temperature / ° C

Clouds and Precipitation
Forecast for 2018-05-24 12:00 UTC. Updated an hour ago

Ground ~20,000 ft ~40,000 ft Winds

METAR

OEDM 241000Z 36016KT CAVOK 37/M05 Q1012

TAF

Not found

Frequencies

Unicom 122.80 MHz CTAF
Warning: Do not use this data for real-world aviation or navigation. No guarantee of current accuracy is given.